www.pogodaiklimat.ru

Погода и климат >> Архив погоды >> Мексика >> Temosachic


ПОГОДА в Temosachic

  • Прогноз погоды в Temosachic
  • Монитор погоды в Temosachic
  • Климат города

АРХИВ ПОГОДЫ в Temosachic

Время (UTC), дата Ветер
(напр.,м/с)
 
Видим.   Явления Облачность Т
(С)
Тd
(С)
f
(%)
Тe
(С)
Тes
(С)
Комфортность P
(гПа)
Po
(гПа)
Тmin
(С)
Tmax
(С)
R
(мм)
R24
(мм)
S
(см)
12 17.10 штиль 0 1000 м 4/0 2000 м
[Ac trans]
+3.8 +2.2 89 +3 +3 1018.6 817.1 +3.8 +23.6
15 17.10 штиль 0 2000 м 10/0 2000 м
[As op]
+7.2 +5.0 86 +6 +7 1021.6 818.0
18 17.10 Ю 5 2000 м 1/1 800 м
[Cu med, cong]
+14.8 +7.6 62 +13 +19 1020.7 817.7 +3.8 +14.8
21 17.10 ЮВ 4 2000 м 1/1 480 м
[Cu hum]
+20.2 +16.2 78 +23 +29 комфорт 1016.1 815.5
00 18.10 Ю 2 2000 м 1/1 300 м
[Cu hum]
+20.6 +16.6 78 +25 +25 комфорт 1012.1 814.8 +3.8 +23.6
12 18.10 Ю 1 1000 м 8/0 2000 м
[Ac trans]
+10.0 +7.6 85 +10 +10 1016.8 817.8 +10.0 +23.6
15 18.10 ЮЗ 4 2000 м 10/0 2000 м
[As op]
+11.0 +7.9 81 +9 +9 1018.6 818.5
18 18.10 ЮЗ 4 2000 м 10/0 2000 м
[]
+15.8 +8.5 62 +15 +19 1018.3 818.2
21 18.10 З 1 2000 м 6/3 450 м
[Sc Ac lent]
+20.8 +17.1 79 +26 +31 душно 1014.2 815.9
00 19.10 В 1 2000 м 8/5 300 м
[Sc Ac lent]
+22.0 +18.1 79 +27 +27 душно 1010.8 815.0 +3.8 +23.8
12 19.10 штиль 0 1000 м 4/0 2000 м
[Ac trans]
+10.4 +9.4 94 +10 +10 1014.8 816.8 +10.4 +23.8
15 19.10 штиль 0 2000 м 5/0 2000 м
[Ac trans]
+12.6 +10.0 84 +12 +14 1017.2 817.7
18 19.10 Ю 3 2000 м 4/4 800 м
[Cu med, cong]
+21.8 +15.1 66 +25 +31 комфорт 1015.8 817.2 +10.0 +21.8
12 20.10 штиль 0 600 м ясно +10.8 +10.5 98 +10 +10 1007.0 811.5 +10.8 +27.4
15 20.10 штиль 0 2000 м туман 9/4 120 м
[Sc As op]
+11.8 +10.8 94 +11 +12 1019.5 820.1
18 20.10 ЮЗ 1 2000 м {туман} 10/5 330 м
[Sc As op]
+17.0 +14.3 84 +18 +19 1020.0 820.1 +10.0 +17.0
12 21.10 штиль 0 1000 м 5/0 2000 м
[As op]
+14.4 +13.5 94 +14 +14 1013.6 818.5 +14.4 +24.4
15 21.10 штиль 0 2000 м 10/0 2000 м
[Ac trans]
+15.2 +13.7 91 +15 +16 1015.6 819.0
18 21.10 Ю 7 2000 м 8/8 800 м
[Sc]
+18.0 +14.1 78 +17 +18 1015.6 818.6 +14.0 +18.0
21 21.10 СВ 3 2000 м 6/5 400 м
[Sc Ac trans]
+21.8 +18.7 83 +27 +30 душно 1011.8 816.0
00 22.10 ЮВ 2 2000 м слабая морось {гроза} 9/5 300 м
[Sc As op]
+19.0 +16.4 85 +21 +21 комфорт 1009.4 814.9 0.0
12 22.10 штиль 0 1000 м 5/0 2000 м
[As op]
+11.0 +7.9 81 +10 +10 1014.2 816.4 +11.0 +23.8
15 22.10 штиль 0 2000 м 10/0 2000 м
[As op]
+13.0 +8.3 73 +13 +13 1015.7 816.8
18 22.10 ЮЗ 2 2000 м 8/4 800 м
[Sc diur, vesp Ac trans]
+17.4 +10.4 63 +18 +22 1015.7 816.9 +10.4 +17.4
21 22.10 В 2 2000 м 6/6 570 м
[Cu med, cong]
+23.2 +18.5 75 +29 +33 душно 1010.4 813.9
00 23.10 ЮЗ 1 2000 м 8/5 300 м
[Sc As op]
+21.8 +17.0 74 +26 +26 душно 1007.5 813.1 +21.8 +25.2
12 23.10 штиль 0 1000 м 9/0 2000 м
[Ac trans]
+11.6 +10.6 94 +11 +11 1011.5 814.5 +11.6 +25.2
15 23.10 штиль 0 2000 м 10/0 2000 м
[As op]
+12.4 +11.1 92 +12 +12 1013.4 815.1
18 23.10 штиль 0 2000 м {морось} 8/4 600 м
[Cu med, cong Ac trans]
+20.0 +12.7 63 +22 +27 комфорт 1012.5 814.7 0.0
21 23.10 Ю 3 2000 м осадки на расстоянии {гроза} 9/9 600 м
[Sc]
+24.4 +19.5 74 +30 +30 очень
душно
1006.9 811.3
00 24.10 СЗ 1 2000 м в посл. час ливневой дождь {гроза} 10/5 100 м
[Sc As op]
+15.8 +14.9 94 +16 +17 1006.4 811.7 32

 

Местоположение метеостанции Temosachic (Мексика): широта 28.95 долгота -107.80 высота над уровнем моря 1932 м.

В архиве по умолчанию представлена погода в Temosachic за последнюю неделю. Архивные данные за месяц целиком и за предыдущие месяцы, начиная с января 2011 года, Вы можете получить, выбрав интересующий диапазон дат из раскрывающегося списка и нажав кнопку "Ввод!".


*Определитесь, кто Вы:
робот инопланетянин человек

Внимание! Время в таблицах - всемирное. Для получения местного времени необходимо прибавить поправку, которая в Temosachic равна -7 ч.

Смотрите также архив погоды в соседних городах и на ближайших метеорологических станциях:

Погода в Nueva Casas Grandes (Мексика) (158 км)
Погода в Chihuahua (Мексика) (170 км)
Погода в Chihuahua University (Мексика) (179 км)
Погода в Pilares de Nacoz (Мексика) (241 км)
Погода в Choix (Мексика) (250 км)
Погода в Ciudad Obregon (Мексика) (264 км)
Погода в Empalme (Мексика) (305 км)
Погода в Hermosillo la Magna (Мексика) (307 км)
Погода в Hidalgo del Parral (Мексика) (312 км)
Погода в Hermosillo (Мексика) (316 км)

Пояснения к столбцам:

Ветер - указаны скорость ветра в м/с - средняя за 10 мин, порывы в срок и между сроками (в фигурных скобках) и направление, откуда дует ветер: С - северный, СВ - северо-восточный, В - восточный, ЮВ - юго-восточный, Ю - южный, ЮЗ - юго-западный, З - западный, СЗ - северо-западный.
Видимость - горизонтальная дальность видимости в метрах или километрах. При видимости от 1 до 10 км при отсутствии осадков обычно наблюдается дымка, при ухудшении видимости до 1 км и менее - туман. В сухую погоду видимость может ухудшаться дымом, пылью или мглою.
Явления - указаны атмосферные явления, наблюдавшиеся в срок или в последний час перед сроком; фигурными скобками обозначены явления, наблюдавшиеся между сроками (за 1-3 часа до срока); квадратными скобками обозначены град или гололедные отложения с указанием их диаметра в мм.
Облачность - указаны через наклонную черту общая и нижняя облачность в баллах и высота нижней границы облаков в метрах; квадратными скобками обозначены формы облаков: Ci - перистые, Cs - перисто-слоистые, Cc - перисто-кучевые, Ac - высококучевые, As - высокослоистые, Sc - слоисто-кучевые, Ns - слоисто-дождевые, Cu - кучевые, Cb - кучево-дождевые. Подробнее классификацию облаков см. в Атласе облаков (PDF).
T - Температура воздуха - температура, измеренная на высоте 2 м над землей.
Td - Температура точки росы - температура, при понижении до которой содержащийся в воздухе водяной пар достигнет насыщения.
f - Относительная влажность воздуха - влажноcть воздуха, измеренная на высоте 2 м над землей.
Te - Эффективная температура - температура, которую ощущает одетый по сезону человек в тени. Характеристика душности погоды. При расчете учитывается влияние влажности воздуха и скорости ветра на теплоощущения человека.
Tes - Эффективная температура на солнце - температура, которую ощущает человек, с поправкой на солнечный нагрев. Характеристика знойности погоды. Зависит от высоты солнца над горизонтом, облачности и скорости ветра. Ночью, в пасмурную погоду, а также при ветре 12 м/с и более поправка равна нулю.
P - Атмосферное давление - приведенное к уровню моря атмосферное давление.
Po - Атмосферное давление - измеренное на уровне метеостанции атмосферное давление.
Tmin - Минимальная температура - минимум температуры воздуха на высоте 2 м над землей.
Tmax - Максимальная температура - максимум температуры воздуха на высоте 2 м над землей.
R - Количество осадков - Количество выпавших осадков за период времени, мм. При наведении курсора мыши на число - период времени, за который выпало указанное количество осадков.
R24 - Количество осадков - Количество выпавших осадков за 24 часа, мм.
S - Снежный покров - Высота снежного покрова, см. При наведении курсора мыши на число - состояние снежного покрова и степень покрытия местности в баллах.